Temperature
16 16 16 16 16 16 16 16 16 15 15 15 15 16 15 15 16 16 16 15 15 15 15 15 15 15 15 15 15 15 15 15 15 15 15 14 14 15
16 16 16 16 16 16 16 15 15 15 15 15 15 15 15 15 15 15 15 15 15 15 15 15 15 15 15 15 15 15 15 15 15 15 14 14 14 14
16 16 16 15 15 15 15 15 15 15 15 15 15 15 15 15 15 15 15 15 15 15 15 15 15 15 15 15 15 15 14 14 14 14 14 14 14 14
15 15 15 15 15 15 15 15 15 15 15 14 14 14 14 14 14 14 14 14 14 14 14 14 14 14 14 14 14 14 14 14 14 14 14 14 14 14
15 15 15 15 15 15 15 14 14 14 14 14 14 14 14 14 14 14 14 14 14 14 14 14 14 14 14 14 14 14 14 14 14 14 13 13 13 14
15 15 15 15 14 14 14 14 14 14 14 14 14 14 14 14 14 14 14 14 14 14 14 14 14 14 14 14 13 13 13 13 13 13 13 13 13 13
15 15 14 14 14 14 14 14 14 13 13 13 13 13 13 13 13 13 13 13 13 13 13 13 13 13 13 13 13 13 13 13 13 13 13 13 13 13
14 14 14 14 14 14 13 13 13 13 13 13 13 13 13 13 13 12 12 13 13 13 13 13 12 13 13 13 12 12 12 12 12 12 12 12 12 12
14 14 14 13 13 13 13 13 13 13 13 13 13 12 12 12 12 12 12 12 12 12 12 12 12 12 12 12 12 12 12 12 12 12 12 12 12 12
14 14 14 13 13 13 13 13 13 13 12 12 12 12 12 12 12 12 12 12 12 12 12 12 12 12 12 12 12 12 12 12 12 12 11 11 11 11
14 14 13 13 13 13 13 13 12 12 12 12 12 12 11 11 11 11 11 11 11 11 11 11 11 11 11 11 11 11 11 11 11 11 11 11 11 11
13 13 13 13 13 13 13 12 12 12 12 12 11 11 11 11 11 11 11 11 11 11 11 11 11 11 11 11 11 11 11 11 11 11 11 11 11 11
13 13 13 13 13 13 12 12 12 12 12 11 11 11 11 11 11 11 11 11 11 11 11 11 11 11 10 10 11 11 11 11 11 10 10 10 10 10
13 13 13 13 13 12 12 12 12 12 12 11 11 11 11 11 11 11 11 11 11 11 11 10 10 10 10 10 10 10 10 10 10 10 10 10 10 10
13 13 13 12 12 12 12 12 12 12 12 11 11 11 11 11 11 11 11 11 11 10 10 10 10 10 10 10 10 10 10 10 10 10 10 10 10 10
13 13 13 12 12 12 12 12 12 12 11 11 11 11 11 11 11 11 10 10 10 10 10 10 10 10 10 10 10 10 10 9 9 9 9 9 9 9
13 12 12 12 12 12 12 11 11 11 11 11 11 11 11 11 10 10 10 10 10 10 10 10 10 10 9 9 9 9 9 9 9 9 9 9 9 9
12 12 12 12 12 11 11 11 11 11 11 11 11 10 10 10 10 10 10 10 10 10 10 10 9 9 9 9 9 9 9 9 9 9 9 9 9 9
12 12 12 12 11 11 11 11 11 11 11 11 11 10 10 10 10 10 9 9 9 9 9 9 9 9 8 8 9 9 9 9 9 9 8 8 8 9
12 12 11 11 11 11 11 11 11 11 10 10 10 10 10 10 10 9 9 9 9 9 9 9 9 8 8 8 8 8 8 8 8 8 8 8 8 8
12 11 11 11 11 11 11 11 10 10 10 10 10 10 10 9 9 9 9 9 9 8 8 8 8 8 8 8 8 8 8 8 8 8 8 8 8 8
11 11 11 11 11 11 11 10 10 10 10 10 10 10 9 9 9 9 9 9 8 8 8 8 8 8 8 8 8 8 8 8 8 8 8 8 7 7
11 11 11 11 11 10 10 10 10 10 10 10 10 9 9 9 9 9 9 8 8 8 8 8 8 8 8 8 7 7 8 8 8 7 7 8 7 7
Wind_Speed
1 1 1 0 1 1 2 3 2 1 2 2 1 2 2 2 3 2 2 2 2 2 3 3 3 3 4 4 3 3 3 3 3 4 5 6 7 8
0 1 0 0 0 0 1 1 2 2 2 2 2 2 3 3 4 2 2 3 2 1 1 2 2 2 1 2 2 3 3 2 2 3 3 4 6 7
0 1 0 0 0 0 0 1 1 1 2 2 1 2 2 3 3 3 3 2 3 3 1 1 0 1 1 1 1 1 1 2 3 3 3 3 4 5
0 1 0 0 1 0 0 0 0 1 2 2 2 2 2 2 3 3 3 2 2 4 2 2 1 1 1 0 0 1 1 1 2 3 3 3 3 4
1 1 1 1 0 0 1 0 0 0 1 1 1 1 1 2 3 3 3 3 3 3 3 2 1 1 1 1 0 1 1 1 2 3 3 2 3 3
1 1 1 2 2 1 1 1 1 1 1 1 0 1 1 2 1 2 3 3 3 3 3 2 2 1 1 0 1 1 1 1 1 2 2 2 2 3
1 1 1 1 2 2 2 2 2 1 1 1 0 1 1 1 1 2 2 2 2 2 2 3 2 1 1 1 1 0 1 1 1 2 3 3 3 2
1 1 1 1 1 2 2 3 4 3 2 1 1 1 2 2 1 1 1 1 2 2 2 2 1 1 1 1 1 1 2 1 1 1 2 3 3 3
2 2 2 1 1 1 1 1 1 2 4 3 3 3 3 3 2 2 2 1 2 2 1 1 1 2 2 1 1 1 1 1 1 2 2 2 2 3
4 4 3 3 3 3 2 1 1 2 3 3 4 4 4 3 3 3 3 2 2 1 0 1 1 2 2 2 1 1 1 0 1 2 3 3 2 2
4 4 4 4 5 5 3 2 2 3 2 3 3 3 3 3 3 1 1 0 1 1 0 1 1 2 2 2 2 1 1 1 0 1 2 3 3 3
3 4 5 5 5 6 5 4 4 3 2 2 2 2 2 2 3 3 3 2 1 1 1 1 1 1 1 1 1 2 1 1 0 1 2 2 2 2
4 4 4 5 6 6 6 5 6 4 2 2 2 2 2 1 2 3 3 3 3 3 2 2 1 1 1 1 2 1 1 0 0 1 2 2 3 3
5 5 4 5 6 6 5 6 5 3 2 2 2 3 3 3 3 3 3 4 4 4 4 3 2 2 1 1 2 2 1 1 1 1 1 1 2 4
5 6 5 5 5 4 5 5 4 3 3 3 4 4 4 4 2 2 2 2 3 3 3 4 3 3 3 3 2 2 1 1 1 1 0 1 1 2
3 3 3 3 3 3 3 3 3 4 4 4 4 4 2 2 2 2 1 1 1 2 1 2 4 4 3 3 3 2 2 2 1 1 1 1 2 3
2 1 1 1 1 2 2 2 3 3 4 4 3 3 3 3 2 2 2 2 2 2 2 1 1 2 3 3 3 3 2 2 2 2 2 2 2 3
4 3 3 3 4 4 4 4 3 4 4 4 4 4 4 4 3 2 2 2 2 2 2 1 1 0 1 2 4 4 3 3 2 2 3 3 3 4
3 4 4 5 5 5 5 4 4 4 4 4 4 4 4 4 3 3 3 2 3 3 3 2 2 3 3 4 2 4 4 3 3 3 3 3 5 5
4 4 5 5 5 5 5 5 4 4 4 4 4 4 4 4 3 4 3 4 3 3 3 3 4 5 5 5 3 3 5 5 4 4 4 4 4 5
5 5 5 5 5 5 5 4 4 4 4 4 4 4 4 4 4 4 4 4 4 3 4 5 5 5 3 2 3 3 4 6 6 5 4 4 4 3
4 4 4 4 4 4 4 4 4 4 4 4 4 4 4 4 4 4 4 4 4 4 5 4 2 2 3 5 5 5 4 3 4 6 6 6 4 5
4 4 4 4 4 4 4 4 4 4 4 4 4 4 3 3 4 4 4 4 4 4 4 3 3 3 4 5 5 5 5 5 3 3 4 6 9 10
Wind_Direction
153 146 155 222 202 216 196 189 187 233 274 287 312 331 333 341 346 341 315 311 299 246 233 237 242 245 246 238 235 222 215 230 238 249 250 235 223 217
179 133 111 283 194 156 184 210 202 194 231 259 278 316 338 347 358 356 330 334 340 309 242 253 259 241 221 219 228 205 197 209 221 240 252 239 224 221
28 129 117 227 135 107 134 139 157 177 216 273 295 329 344 351 350 356 356 345 351 2 27 54 73 148 188 233 246 205 203 213 224 236 245 235 219 222
201 133 176 151 99 101 110 91 167 192 192 239 285 316 325 335 334 340 354 2 3 8 17 24 48 57 45 22 184 161 166 191 212 220 228 228 213 217
208 196 211 153 140 136 120 94 27 116 155 194 265 327 322 337 337 342 358 355 358 354 348 344 341 337 359 36 111 159 168 209 218 212 205 207 204 203
218 206 203 188 192 191 174 171 139 118 114 144 257 320 304 318 342 333 340 347 343 352 1 6 352 327 305 283 93 96 186 211 211 206 195 192 192 195
235 228 211 198 191 183 172 174 154 143 147 166 248 314 313 324 319 308 309 323 332 354 353 359 352 342 323 297 224 168 113 156 187 181 174 177 181 189
226 255 254 223 203 181 175 172 164 169 183 187 224 246 267 266 281 297 298 321 311 340 338 332 350 328 319 288 343 157 153 158 160 159 154 158 161 159
221 233 246 242 214 193 164 141 188 192 188 193 212 236 246 242 241 259 257 260 262 293 293 303 328 326 321 326 350 112 153 175 170 162 152 140 140 140
228 225 223 233 222 192 183 201 249 249 238 224 223 239 247 236 223 232 243 260 288 298 282 276 313 312 328 321 353 34 360 319 163 161 160 149 142 139
237 230 221 225 220 195 183 206 260 277 263 229 232 249 255 231 192 174 188 203 286 284 262 261 296 302 311 323 328 357 4 353 157 157 162 169 177 177
244 240 230 223 218 198 196 204 233 256 264 286 294 296 281 256 193 202 205 207 229 261 228 224 284 337 309 308 324 337 340 347 332 193 183 187 191 184
235 239 235 223 222 213 209 217 228 231 240 251 274 282 280 265 241 225 215 209 212 236 214 195 223 234 255 297 312 316 324 335 264 212 208 219 208 195
232 237 238 227 226 225 223 226 227 222 228 244 262 268 265 263 259 244 233 232 232 238 218 196 206 211 225 268 288 303 300 282 228 229 233 236 225 226
233 236 240 236 232 230 228 226 228 220 219 233 247 255 254 252 252 249 238 244 253 246 218 210 211 211 220 235 251 269 281 281 250 238 229 216 226 232
232 233 221 212 221 231 239 240 233 227 223 233 245 253 254 246 235 227 224 224 246 283 282 233 217 206 220 233 231 247 249 238 237 254 247 244 234 228
186 208 216 229 242 256 257 250 238 232 233 235 239 244 247 243 241 228 211 205 225 247 275 315 295 240 231 221 227 236 239 248 248 235 232 251 252 241
168 207 225 230 236 242 246 249 244 240 239 235 236 237 240 237 236 226 218 214 227 236 242 251 275 277 244 246 225 234 238 246 246 231 231 237 256 258
186 216 226 233 241 242 241 242 243 243 237 232 235 239 239 235 231 227 219 221 232 236 233 215 205 206 233 260 248 215 229 238 234 232 233 238 252 256
214 225 233 238 243 245 244 243 244 244 235 236 241 242 235 231 226 226 225 228 236 242 242 228 220 219 225 241 250 251 228 224 227 239 241 247 257 262
221 228 234 237 242 246 248 242 240 240 238 234 236 235 233 229 231 233 230 225 229 235 242 248 246 236 234 226 240 252 249 232 227 230 232 240 254 258
231 235 239 242 243 247 248 244 244 245 240 236 237 235 231 228 232 234 231 228 232 236 248 258 251 220 212 222 242 253 259 262 248 236 233 233 237 243
238 238 239 241 244 248 247 242 241 243 238 235 237 237 232 230 233 232 230 231 235 241 249 256 250 233 232 231 240 252 257 260 259 254 261 262 251 253
Height
1521 1521 1521 1521 1520 1520 1520 1520 1520 1519 1518 1518 1518 1517 1517 1517 1517 1516 1515 1515 1514 1513 1513 1512 1512 1512 1511 1512 1512 1512 1512 1513 1513 1513 1514 1514 1515 1517
1520 1519 1519 1519 1518 1518 1518 1518 1518 1518 1517 1516 1516 1516 1515 1515 1515 1514 1513 1512 1512 1511 1510 1510 1509 1509 1509 1509 1509 1509 1509 1510 1510 1510 1510 1511 1512 1514
1518 1518 1517 1517 1517 1516 1516 1516 1515 1515 1514 1514 1514 1514 1513 1513 1512 1512 1511 1510 1509 1509 1508 1508 1507 1507 1507 1507 1506 1506 1506 1506 1506 1507 1507 1508 1509 1511
1516 1516 1515 1515 1515 1514 1514 1513 1513 1513 1512 1511 1511 1511 1511 1510 1510 1510 1509 1508 1507 1507 1506 1506 1505 1505 1504 1504 1504 1504 1504 1503 1504 1504 1505 1506 1506 1508
1514 1513 1513 1513 1512 1512 1512 1511 1511 1511 1510 1510 1509 1509 1508 1508 1507 1507 1507 1506 1505 1505 1504 1504 1503 1503 1502 1502 1502 1502 1502 1502 1502 1502 1502 1503 1504 1505
1512 1511 1511 1511 1510 1510 1510 1509 1509 1508 1508 1508 1507 1506 1506 1505 1505 1504 1504 1503 1503 1502 1502 1501 1501 1500 1500 1500 1499 1499 1499 1499 1499 1499 1500 1501 1501 1502
1510 1509 1509 1509 1508 1508 1508 1507 1507 1506 1506 1505 1505 1504 1503 1503 1502 1502 1501 1501 1500 1500 1500 1499 1499 1498 1497 1497 1497 1497 1497 1497 1497 1497 1497 1498 1499 1500
1507 1507 1507 1507 1506 1506 1506 1505 1505 1504 1504 1503 1502 1502 1501 1501 1501 1500 1499 1499 1498 1498 1498 1497 1497 1496 1496 1495 1495 1495 1495 1495 1494 1494 1495 1495 1496 1497
1505 1505 1504 1504 1504 1504 1504 1503 1503 1502 1502 1502 1501 1500 1500 1499 1499 1498 1498 1497 1496 1496 1496 1495 1495 1494 1494 1493 1493 1493 1493 1493 1493 1492 1493 1493 1494 1495
1502 1502 1502 1502 1502 1502 1501 1501 1500 1500 1500 1499 1499 1498 1498 1497 1497 1496 1496 1495 1495 1494 1494 1493 1493 1493 1492 1492 1492 1491 1491 1491 1491 1491 1491 1491 1492 1492
1499 1499 1499 1499 1499 1499 1499 1498 1498 1498 1497 1497 1497 1496 1496 1495 1494 1493 1493 1492 1491 1491 1491 1491 1490 1490 1490 1490 1490 1490 1490 1490 1490 1490 1490 1490 1490 1491
1495 1496 1496 1496 1496 1496 1496 1495 1495 1495 1495 1494 1494 1494 1493 1492 1491 1490 1490 1490 1489 1489 1489 1489 1488 1488 1488 1488 1488 1488 1487 1488 1488 1488 1488 1488 1489 1489
1492 1492 1492 1493 1493 1492 1492 1492 1492 1492 1492 1491 1491 1490 1490 1489 1488 1487 1487 1487 1487 1487 1487 1487 1486 1486 1486 1486 1485 1485 1485 1485 1485 1486 1486 1486 1486 1487
1488 1488 1488 1489 1489 1489 1489 1489 1489 1489 1488 1488 1487 1487 1486 1486 1485 1485 1484 1484 1484 1484 1484 1484 1484 1484 1484 1483 1482 1482 1483 1483 1483 1483 1483 1484 1484 1484
1484 1485 1485 1485 1485 1485 1485 1485 1485 1485 1484 1484 1484 1483 1483 1483 1482 1482 1481 1481 1481 1481 1481 1481 1481 1481 1481 1480 1480 1479 1479 1480 1480 1480 1480 1481 1481 1481
1480 1481 1481 1480 1481 1481 1481 1481 1481 1481 1480 1480 1480 1480 1479 1479 1478 1478 1477 1477 1477 1477 1477 1477 1477 1477 1477 1477 1477 1476 1477 1477 1477 1477 1477 1478 1478 1478
1476 1476 1476 1476 1476 1477 1477 1477 1477 1476 1476 1476 1476 1475 1475 1474 1474 1474 1473 1473 1473 1473 1473 1473 1474 1474 1474 1474 1473 1473 1473 1474 1474 1474 1474 1474 1474 1475
1472 1472 1472 1472 1472 1472 1472 1472 1472 1472 1472 1472 1471 1471 1471 1470 1469 1469 1469 1469 1468 1468 1469 1469 1470 1470 1471 1470 1471 1470 1470 1470 1470 1471 1471 1470 1470 1471
1468 1468 1468 1468 1468 1468 1467 1467 1467 1467 1467 1467 1467 1466 1466 1465 1465 1464 1464 1464 1464 1464 1464 1465 1465 1466 1466 1466 1466 1466 1466 1466 1466 1467 1467 1467 1466 1466
1463 1463 1464 1464 1464 1463 1463 1463 1463 1462 1462 1463 1462 1462 1461 1461 1460 1460 1460 1460 1460 1460 1460 1460 1461 1461 1461 1461 1461 1461 1462 1462 1462 1462 1462 1462 1462 1463
1459 1459 1459 1459 1459 1459 1459 1458 1458 1458 1458 1458 1457 1457 1457 1456 1456 1456 1456 1456 1456 1456 1456 1456 1456 1457 1457 1458 1457 1457 1458 1458 1458 1458 1458 1458 1457 1457
1454 1454 1454 1455 1455 1455 1455 1454 1454 1453 1453 1453 1453 1453 1452 1452 1452 1452 1452 1452 1452 1452 1452 1452 1452 1453 1453 1453 1452 1452 1453 1453 1454 1454 1454 1454 1453 1452
1450 1450 1450 1451 1451 1451 1450 1450 1449 1449 1449 1449 1448 1449 1448 1448 1448 1448 1448 1448 1448 1448 1447 1448 1448 1448 1448 1448 1448 1448 1448 1448 1448 1448 1449 1449 1449 1449